Location: Unspecified
(0.0000°N, 0.0000°E)
Time: 11:23:56
(UTC+00:00)

Transit 2A Rocket - Pass Details

Date: 26 November 2019
Orbit: 594 x 909 km, 66.7° (Epoch: 07 December)

Event Time Altitude Azimuth Distance (km) Brightness Sun altitude
Rises 06:34:35 0° 332° (NNW) 3,016 7.6 11.1°
Reaches altitude 10° 06:36:50 10° 327° (NNW) 2,149 6.9 11.6°
Maximum altitude 06:41:37 55° 250° (WSW) 887 5.3 12.7°
Drops below altitude 10° 06:46:55 10° 172° (S) 2,365 8.0 13.9°
Sets 06:49:30 0° 168° (SSE) 3,348 8.8 14.5°
